Location: Les Salelles
(44.4192°N, 4.1044°E)
Time: 19:10:40
(UTC+00:00)

MOS 1 Rocket - Pass Details

Date: 20 January 2021
Orbit: 614 x 830 km, 97.4° (Epoch: 03 March)

Event Time Altitude Azimuth Distance (km) Brightness Sun altitude
Rises 17:02:37 0° 27° (NNE) 2,921 6.0 -5.0°
Reaches altitude 10° 17:05:23 10° 45° (NE) 1,992 5.1 -5.5°
Maximum altitude 17:08:30 19° 92° (E) 1,463 4.4 -6.0°
Drops below altitude 10° 17:11:35 10° 138° (SE) 1,972 5.4 -6.5°
Sets 17:14:17 0° 156° (SSE) 2,880 6.5 -6.9°
